Regional Weather Roundup
Issued by NWS

Home | Current Version | Previous Version | Graphics & Text | Print | Product List | Glossary On
Versions: 1 2 3 4 5 6 7 8 9 10 11 12 13 14 15 16 17 18 19 20 21 22 23 24 25 26 27 28 29 30 31 32 33 34 35 36 37 38 39 40 41 42 43 44 45 46 47 48 49 50
000
ASUS45 KPSR 040300
RWRAZ

ARIZONA HOURLY REGIONAL WEATHER ROUNDUP
NATIONAL WEATHER SERVICE PHOENIX AZ
800 PM MST MON AUG 03 2015

NOTE: FAIR INDICATES FEW OR NO CLOUDS BELOW 12,000 FEET WITH NO
SIGNIFICANT WEATHER AND/OR OBSTRUCTIONS TO VISIBILITY.

AZZ001>003-036-040400-
NORTHWEST ARIZONA

CITY           SKY/WX    TMP DP  RH WIND       PRES   REMARKS
KINGMAN        PTCLDY    88  32  13 S9        29.94S
$$

AZZ004>008-015-016-018-040400-
NORTH CENTRAL ARIZONA

CITY           SKY/WX    TMP DP  RH WIND       PRES   REMARKS
GRAND CANYON   PTCLDY    71  39  31 SW3       30.20R
PRESCOTT       PTCLDY    81  44  27 SW9       30.09R
FLAGSTAFF      NOT AVBL
PAYSON         CLEAR     84  43  23 SW6       30.11R
PAGE           PTCLDY    90  39  16 W3        29.95R
$$

AZZ009>014-017-040400-
NORTHEAST ARIZONA

CITY           SKY/WX    TMP DP  RH WIND       PRES   REMARKS
WINSLOW        NOT AVBL
SAINT JOHNS    CLEAR     74  46  36 SW6       30.11S
$$

AZZ023-040400-
GREATER PHOENIX AREA

CITY           SKY/WX    TMP DP  RH WIND       PRES   REMARKS
PHOENIX        PTCLDY   106  40  10 W7        29.74R HX 100
GLENDALE       PTCLDY   102  46  15 S6        29.75R
LUKE AFB       CLEAR    102  52  18 SW8       29.73R
DEER VALLEY    CLEAR    101  45  15 SW8       29.77R
SCOTTSDALE     CLEAR    102  41  12 SW6       29.79R
MESA-FALCON    PTCLDY   102  41  12 SW7       29.77R
MESA-GATEWAY   PTCLDY   100  46  16 NW5       29.79R
CHANDLER       PTCLDY   102  46  15 W6        29.76R
$$

AZZ027-028-040400-
SOUTHWEST MARICOPA COUNTY AND PINAL COUNTY

CITY           SKY/WX    TMP DP  RH WIND       PRES   REMARKS
CASA GRANDE    CLEAR     97  52  21 CALM      29.78R
GILA BEND      PTCLDY   104  51  16 W8        29.73R HX 101
$$

AZZ503-504-507>509-040400-
SOUTHEAST ARIZONA

CITY           SKY/WX    TMP DP  RH WIND       PRES   REMARKS
TUCSON         CLEAR     96  48  19 N6        29.90R
DAVIS-MONTHAN  CLEAR     94  47  19 NW6       29.89R
RYAN FIELD     CLEAR     97  48  19 NW3       29.88R
NOGALES        MOCLDY    83  60  45 S8        30.02S
SIERRA VISTA   MOCLDY    81  55  41 SW6       30.08S
SAFFORD        PTCLDY    93  45  19 NW8       29.89R
$$

AZZ020-021-025-026-031-040400-
SOUTHWEST ARIZONA

CITY           SKY/WX    TMP DP  RH WIND       PRES   REMARKS
YUMA           NOT AVBL
$$

CAZ031-033-041-043-047-048-061-040400-
SOUTHERN CALIFORNIA

CITY           SKY/WX    TMP DP  RH WIND       PRES   REMARKS
DOWNTOWN L.A.  PTCLDY    73  61  65 CALM      29.86R
L.A. AIRPORT   PTCLDY    70  62  76 SW9       29.86S
SAN DIEGO      PTCLDY    72  64  76 NW7       29.89R
BURBANK        PTCLDY    77  58  51 CALM      29.86R
ONTARIO        PTCLDY    81  61  50 W12       29.86S
RIVERSIDE      CLEAR     80  63  55 W7        29.87R
PALM SPRINGS   CLEAR    101  50  18 NW20G25   29.71R
EL CENTRO NAS  PTCLDY   100  43  14 S14       29.67R
IMPERIAL       CLEAR    103  42  12 S10       29.65R
BLYTHE         CLEAR    106  44  12 SW6       29.68R HX 101
$$

NVZ020-UTZ003-040400-
SOUTHERN NEVADA-UTAH

CITY           SKY/WX    TMP DP  RH WIND       PRES   REMARKS
LAS VEGAS      NOT AVBL
SALT LAKE CITY MOCLDY    68  58  70 SE5       30.08R
$$

NMZ009-TXZ055-040400-
NEW MEXICO-WEST TEXAS

CITY           SKY/WX    TMP DP  RH WIND       PRES   REMARKS
ALBUQUERQUE    PTCLDY    83  44  25 NW9       30.10R
EL PASO        MOCLDY    84  58  40 SE20G25   30.01R
$$


........................KEY........................
SKY/WX - SKY CONDITION/WEATHER
TMP    - TEMPERATURE IN FAHRENHEIT
DP     - DEW POINT IN FAHRENHEIT
RH     - RELATIVE HUMIDITY IN PERCENT
WIND   - DIRECTION AND SPEED IN MILES PER HOUR (MPH)
VRB    - VARIABLE WIND DIRECTION
PRES   - MEAN SEA LEVEL PRESSURE IN INCHES OF MERCURY
         F - FALLING PRESSURE   R - RISING PRESSURE
         S - STEADY PRESSURE
VSB    - VISIBILITY IN MILES
HX     - HEAT INDEX IN FAHRENHEIT
WCI    - WIND CHILL INDEX IN FAHRENHEIT
TC     - TEMPERATURE IN CELSIUS WHICH IS ALSO KNOWN AS
         TEMPERATURE IN CENTIGRADE
AFB    - AIR FORCE BASE
         LUKE AFB IS LUKE AIR FORCE BASE
         DAVIS-MONTHAN IS DAVIS-MONTHAN AIR FORCE BASE
NAS    - NAVAL AIR STATION
         EL CENTRO NAS IS EL CENTRO NAVAL AIR STATION
N/A    - NOT AVAILABLE



USA.gov is the U.S. government's official web portal to all federal, state and local government web resources and services.